Temperature
16 16 16 16 16 15 15 16 15 15 15 15 15 15 15 15 15 15 15 15 15 15 15 15 15 15 15 15 15 15 15 15 15 15 15 15 15 15 15 15 15 15 15
16 16 16 16 16 15 15 15 15 15 15 15 15 15 15 15 15 15 15 15 15 15 15 15 15 15 15 15 15 15 15 15 15 15 15 15 15 15 14 14 15 14 15
16 16 16 16 16 15 15 15 15 15 15 15 15 15 15 15 14 14 14 14 15 15 14 15 15 15 15 15 15 14 14 14 14 14 14 14 14 14 14 14 14 14 14
16 16 16 16 15 15 15 15 15 15 15 15 15 15 14 14 14 14 14 14 14 14 14 14 14 14 14 14 14 14 14 14 14 14 14 14 14 14 14 14 14 14 14
16 16 16 15 15 15 15 15 15 15 15 15 15 14 14 14 14 14 14 14 14 14 14 14 14 14 14 14 14 14 14 14 14 14 14 14 14 14 14 14 14 13 13
16 16 15 15 15 15 15 15 15 15 14 15 14 14 14 14 14 14 14 14 14 14 14 14 14 14 14 13 13 14 14 14 13 14 14 14 14 13 13 13 13 13 13
16 15 15 15 15 15 15 14 14 14 14 14 14 14 14 14 14 14 14 14 14 13 13 13 13 13 13 13 13 13 13 13 13 13 13 13 13 13 13 13 13 13 13
15 15 15 15 15 15 15 14 14 14 14 14 14 14 14 14 14 14 13 13 13 13 13 13 13 13 13 13 13 13 13 13 13 13 13 13 13 13 13 13 13 12 13
15 15 15 15 15 14 14 14 14 14 14 14 14 14 14 13 13 13 13 13 13 13 13 13 13 13 13 13 13 13 13 13 13 13 13 13 12 12 12 12 12 12 12
15 15 15 15 14 14 14 14 14 14 14 14 14 14 14 14 13 13 13 13 13 13 13 13 13 13 13 13 12 12 12 12 12 12 12 12 12 12 12 12 12 12 12
15 15 15 15 14 14 14 14 14 14 14 14 14 14 14 14 14 13 13 13 13 13 13 13 12 12 12 12 12 12 12 12 12 12 12 12 12 12 12 12 12 12 12
15 15 15 14 14 14 14 14 14 14 14 14 14 14 14 14 13 13 13 12 12 13 13 12 12 12 12 12 12 12 12 12 12 12 12 12 12 12 12 12 12 12 12
15 15 14 14 14 14 14 14 14 14 14 14 14 14 14 14 13 13 13 13 12 12 12 12 12 12 12 12 12 12 12 12 12 12 12 12 12 11 11 11 11 11 11
15 15 14 14 14 14 14 14 14 14 14 14 13 14 14 14 13 13 13 13 12 12 12 12 12 12 12 12 12 12 12 12 12 12 12 11 11 11 11 11 11 11 11
15 15 14 14 14 14 14 14 13 13 13 14 13 13 13 13 13 13 13 13 13 12 12 12 12 12 12 12 12 12 12 12 11 11 11 11 11 11 11 11 11 11 11
15 15 14 14 14 14 14 14 13 13 13 13 13 13 13 13 13 13 13 13 13 13 12 12 12 12 12 11 11 12 11 11 11 11 11 11 11 11 11 11 11 11 11
15 14 14 14 14 14 14 14 13 13 13 13 13 13 13 13 13 13 13 13 13 13 12 12 12 11 11 11 11 11 11 11 11 11 11 11 11 11 11 11 11 11 10
14 14 14 14 14 14 13 13 13 13 13 13 13 13 13 13 13 13 13 13 12 12 12 12 11 11 11 11 11 11 11 11 11 11 11 11 11 11 11 11 10 10 10
14 14 14 13 13 13 13 13 13 13 13 13 13 13 13 13 13 13 13 12 12 12 12 12 11 11 11 11 11 11 10 10 11 11 10 10 10 10 10 10 10 10 10
14 14 13 13 13 13 13 13 13 13 13 13 13 13 13 13 12 12 12 12 12 12 12 11 11 11 11 10 10 10 10 10 10 10 10 10 10 10 10 10 10 10 10
13 13 13 13 13 13 13 13 13 13 13 12 12 12 12 12 12 12 12 12 12 11 11 11 11 11 11 10 10 10 10 10 10 10 10 10 10 10 10 10 10 10 10
13 13 13 13 13 12 12 12 12 12 12 12 12 12 12 12 12 12 12 12 11 11 11 11 11 11 11 11 10 10 10 10 9 9 9 9 9 9 9 9 9 9 9
13 13 13 12 12 12 12 12 12 12 12 12 12 12 12 12 12 12 12 12 11 11 11 11 11 11 11 11 10 10 10 10 10 10 9 9 9 9 9 9 9 9 9
12 12 12 12 12 12 12 12 12 12 12 11 11 11 12 12 12 12 12 11 11 11 11 11 11 11 11 10 10 10 10 9 9 9 9 9 9 9 9 9 9 9 9
12 12 12 12 12 12 12 11 11 11 11 11 11 11 11 11 11 11 11 11 11 11 11 11 11 11 10 10 10 10 9 9 9 9 9 8 8 8 8 8 9 8 8
12 12 11 11 11 11 11 11 11 11 11 11 11 11 11 11 11 11 11 11 11 11 11 11 10 10 10 10 10 10 10 9 9 8 8 8 8 8 8 8 8 8 8
Wind_Speed
2 2 3 3 4 4 4 3 3 4 5 6 7 6 6 7 8 9 8 11 11 11 10 10 9 8 8 10 10 9 9 7 7 6 6 6 6 7 6 5 5 5 5
3 3 3 3 4 4 4 3 4 4 4 4 5 5 5 6 8 9 9 9 10 10 10 10 9 10 10 10 10 10 10 9 8 8 8 7 7 6 6 5 5 5 5
5 4 3 3 3 5 6 4 4 4 3 4 5 4 5 6 7 7 8 8 8 10 11 11 10 10 10 10 10 10 10 11 9 8 8 8 7 7 6 5 5 5 5
7 5 3 2 4 5 4 3 3 3 3 3 3 3 4 4 6 6 7 8 8 8 9 11 11 10 10 10 10 10 10 10 10 9 9 8 8 8 6 6 5 5 5
7 5 2 2 5 3 3 3 4 3 3 3 3 3 3 4 4 6 6 7 7 8 8 9 11 11 10 10 10 10 10 10 10 10 10 9 9 8 7 6 6 6 6
6 5 2 4 5 3 3 4 4 3 3 2 4 4 3 4 4 4 4 5 6 7 8 7 7 8 9 10 10 10 10 10 10 11 11 10 9 9 8 7 8 7 7
5 4 3 4 3 3 3 3 3 3 2 3 3 3 3 3 4 3 3 4 4 6 7 6 6 6 7 9 10 10 10 10 10 10 10 10 9 9 8 8 8 8 8
5 3 3 3 3 3 3 3 2 2 2 2 2 2 2 2 3 3 3 2 3 4 4 6 6 7 7 7 8 9 9 9 9 10 10 10 10 9 9 9 8 8 7
3 3 2 2 2 2 2 2 2 2 1 1 1 1 2 1 1 1 2 2 2 2 2 4 5 7 8 8 7 9 9 9 9 9 9 9 9 9 9 8 8 8 7
2 3 3 3 2 2 2 1 2 1 1 1 1 1 1 2 2 1 2 2 2 2 2 2 4 6 8 8 8 8 8 8 8 8 8 8 8 8 8 8 7 7 7
2 3 2 1 1 2 2 2 2 1 1 1 0 1 2 1 1 2 1 1 2 1 1 2 3 5 7 8 8 8 8 7 8 8 8 7 7 8 8 7 7 7 6
1 2 1 0 1 1 1 2 1 1 0 0 0 1 1 1 1 1 1 1 0 1 0 1 2 4 6 8 7 8 7 7 7 8 8 8 7 8 8 7 7 6 6
1 1 1 0 1 1 1 1 0 1 1 1 1 0 0 0 1 2 2 1 0 1 1 1 2 4 6 8 8 7 6 6 6 6 7 7 7 7 8 8 7 7 6
2 2 1 1 1 1 1 1 0 1 1 1 1 1 0 0 1 2 2 2 1 1 1 0 1 4 6 8 7 7 5 5 4 5 5 6 6 6 7 7 8 7 7
2 2 2 2 2 1 1 1 1 1 1 1 1 1 1 1 1 1 2 2 3 1 1 1 0 2 5 7 7 5 5 5 5 4 4 4 5 6 6 6 7 7 7
2 2 2 1 2 2 2 2 1 1 1 1 0 1 1 1 1 1 2 1 1 2 1 1 1 2 3 4 5 4 5 5 4 4 4 3 4 4 4 5 6 6 6
2 2 2 1 1 1 1 1 1 2 2 2 2 2 2 2 2 1 1 1 1 2 2 1 1 2 3 3 3 4 5 5 4 3 3 3 3 3 3 4 4 4 5
1 1 2 2 2 1 1 2 2 2 2 2 2 1 2 2 2 1 1 1 1 1 3 2 1 2 2 4 4 3 3 4 4 4 4 3 2 3 3 3 3 3 4
1 1 2 2 2 2 1 2 2 2 2 2 2 2 2 3 2 1 2 1 1 1 2 2 2 1 2 3 2 2 2 3 3 4 4 3 3 2 2 2 2 2 2
1 1 1 2 2 2 1 2 2 3 2 2 2 2 2 3 3 3 2 2 2 2 1 1 2 2 2 2 2 2 1 1 1 3 4 3 3 2 3 3 2 2 1
2 2 2 1 1 1 1 1 1 2 2 2 2 1 2 3 3 3 2 2 3 2 2 2 2 2 2 2 3 2 2 1 1 2 2 2 3 3 3 3 3 3 2
2 1 1 1 1 1 2 1 1 3 3 2 2 1 3 3 4 3 3 3 4 4 4 3 3 3 4 3 3 2 2 1 1 1 1 1 3 2 3 4 5 4 4
2 2 2 2 2 3 3 3 3 3 3 3 2 2 2 2 4 2 3 3 3 5 5 4 4 4 4 4 4 3 3 2 2 3 1 1 2 1 3 3 5 5 5
2 2 2 2 2 3 4 3 4 3 3 2 2 2 2 2 2 3 3 3 3 4 5 4 4 3 3 4 5 5 4 2 0 1 2 1 1 1 2 3 5 6 6
3 3 3 3 3 3 4 4 3 2 2 3 2 2 2 3 3 3 2 3 3 2 3 3 4 4 4 5 6 4 3 2 1 3 2 2 1 1 1 2 5 6 6
4 4 4 4 4 4 5 5 4 2 2 2 2 2 3 3 4 4 2 3 3 3 3 2 2 3 4 5 6 6 5 4 2 2 3 2 2 0 1 2 3 5 6
Wind_Direction
65 73 82 79 84 81 64 45 40 46 49 42 50 58 62 70 83 87 84 75 69 66 66 69 71 79 78 75 72 68 64 59 59 56 53 52 53 55 60 67 69 67 65
84 62 64 66 65 72 79 63 58 56 55 59 52 48 56 69 84 92 98 84 74 71 70 69 72 80 79 77 74 69 63 58 59 58 53 51 52 55 54 59 62 66 66
92 78 64 67 68 63 68 59 55 66 68 65 63 53 53 54 67 78 93 97 88 78 75 70 72 79 77 76 74 71 65 59 57 57 54 50 50 52 50 56 58 64 70
87 80 66 66 75 67 65 62 61 70 73 70 62 58 57 57 58 64 72 86 93 88 80 74 74 75 77 74 73 73 67 62 56 57 57 55 53 53 51 55 56 62 65
81 86 67 70 83 68 50 53 55 81 89 91 85 78 67 61 58 64 66 74 86 93 93 83 78 73 79 73 70 72 66 63 60 56 54 55 55 54 54 56 64 68 65
75 86 72 73 73 64 60 62 61 70 90 88 77 71 71 74 67 57 61 66 75 88 92 92 90 78 75 72 67 65 65 63 61 57 52 52 54 52 55 59 66 67 64
75 80 68 70 71 74 70 73 79 73 72 90 84 70 62 67 79 70 66 64 66 78 88 93 97 91 85 74 67 63 63 60 60 56 51 51 52 53 56 62 65 67 60
66 75 79 88 85 85 73 73 81 61 39 47 81 97 76 35 32 68 75 67 69 69 74 84 83 91 92 88 71 65 64 63 61 57 53 54 55 55 58 63 66 65 61
61 64 80 86 99 107 113 109 84 86 91 3 31 81 110 126 41 23 58 72 68 57 59 75 82 89 90 89 77 64 62 61 61 58 55 56 58 59 62 64 64 64 59
112 88 83 80 78 93 101 101 86 97 102 89 352 359 78 121 125 74 9 37 67 68 70 76 78 90 95 94 85 72 66 59 56 53 52 52 55 59 62 62 64 63 55
118 101 98 105 114 112 124 95 78 58 107 108 114 20 52 59 104 128 122 354 18 27 73 93 88 92 100 104 99 84 76 69 60 52 50 48 51 55 57 55 58 59 52
96 87 95 121 117 103 99 111 130 130 115 75 208 116 123 130 130 102 144 161 49 310 68 106 102 100 105 105 101 93 87 75 65 58 53 47 45 49 52 52 53 51 49
142 153 132 152 98 102 132 107 179 228 168 190 222 185 102 133 126 119 125 143 99 315 47 92 124 116 114 114 114 106 99 88 77 67 58 51 45 45 48 47 45 45 47
177 159 155 157 140 157 179 165 225 254 218 213 184 141 152 126 111 132 138 136 109 328 353 127 96 109 113 121 130 124 121 112 99 80 67 55 48 49 50 49 43 44 49
169 145 174 179 162 176 218 164 215 263 281 230 185 170 161 175 139 131 139 151 149 174 259 220 118 116 112 119 134 137 139 135 124 106 83 67 58 56 55 56 53 47 48
172 156 186 204 176 192 203 173 206 241 273 293 194 156 182 178 156 151 167 178 150 165 198 223 209 153 122 127 136 123 130 141 130 122 106 88 74 69 67 64 57 50 48
190 188 185 190 162 224 202 169 223 224 224 240 226 190 202 172 139 156 150 159 170 137 165 230 171 148 127 123 126 131 133 142 141 136 128 111 98 87 81 75 65 54 48
220 209 187 200 179 206 211 207 233 240 226 237 230 192 193 159 141 149 137 170 155 158 160 178 194 164 153 151 149 157 147 145 142 154 149 143 132 121 103 91 80 64 54
213 235 209 218 203 206 218 240 236 238 227 221 222 205 196 163 157 181 189 170 160 132 141 167 190 182 169 152 140 147 134 133 150 160 157 159 158 155 147 132 117 91 69
209 241 241 232 226 220 212 241 251 247 241 223 220 207 179 162 173 181 181 167 150 140 152 158 177 181 173 157 138 149 156 197 198 169 162 164 170 179 192 184 177 164 135
215 227 231 234 238 238 236 250 278 288 270 247 235 190 158 149 153 165 177 169 160 170 175 183 192 186 184 163 178 180 173 188 246 171 149 179 178 186 205 212 205 204 205
216 220 229 204 224 259 257 265 278 270 262 248 231 184 166 142 136 152 170 178 175 179 186 190 208 207 210 188 171 164 160 155 240 228 140 225 173 197 184 187 201 206 212
207 213 223 195 198 217 222 240 265 263 256 245 222 197 213 177 150 170 201 203 199 195 194 192 204 214 206 185 166 176 186 197 212 205 161 233 196 198 175 189 200 207 215
203 214 219 200 204 223 214 227 254 248 248 248 231 191 186 173 188 178 195 206 215 217 216 207 203 209 193 173 172 182 185 175 204 215 169 210 220 217 201 178 205 212 216
211 221 222 211 207 208 207 219 238 244 245 246 233 202 195 186 203 183 204 217 213 228 223 199 196 193 193 184 169 150 161 159 227 244 213 180 212 247 239 219 205 210 219
208 217 227 215 202 205 209 213 222 231 239 254 251 217 208 210 211 201 210 216 215 223 215 227 230 220 194 187 181 176 178 179 196 226 214 176 206 171 280 240 202 204 214
Height
1525 1525 1525 1525 1524 1524 1524 1523 1524 1524 1524 1524 1524 1524 1524 1524 1524 1523 1523 1523 1523 1523 1523 1523 1523 1523 1523 1523 1523 1524 1524 1524 1524 1524 1524 1524 1523 1522 1522 1523 1524 1525 1526
1526 1526 1526 1525 1525 1525 1525 1524 1524 1524 1524 1524 1525 1525 1525 1525 1524 1524 1523 1523 1524 1524 1524 1524 1523 1524 1524 1524 1524 1524 1524 1524 1524 1524 1523 1523 1523 1523 1523 1523 1524 1525 1525
1527 1526 1526 1526 1526 1526 1525 1525 1524 1524 1524 1525 1525 1525 1525 1526 1525 1525 1524 1524 1524 1525 1525 1524 1524 1524 1524 1524 1524 1524 1524 1524 1523 1523 1523 1523 1523 1523 1523 1523 1524 1524 1524
1528 1527 1527 1527 1527 1526 1525 1525 1524 1523 1524 1525 1525 1526 1526 1526 1526 1526 1526 1525 1525 1526 1525 1525 1525 1525 1525 1525 1524 1524 1524 1524 1523 1523 1523 1522 1522 1522 1523 1523 1523 1523 1524
1528 1527 1528 1527 1527 1526 1526 1525 1524 1523 1524 1525 1526 1526 1527 1527 1527 1527 1527 1527 1527 1527 1526 1526 1526 1526 1526 1526 1525 1525 1525 1524 1523 1523 1522 1522 1522 1522 1522 1522 1522 1523 1523
1529 1528 1528 1528 1527 1527 1526 1525 1524 1524 1525 1526 1526 1527 1527 1528 1528 1529 1529 1529 1528 1528 1528 1527 1527 1527 1527 1526 1526 1526 1525 1524 1524 1523 1522 1522 1522 1522 1522 1522 1522 1522 1523
1529 1529 1528 1528 1527 1527 1527 1526 1526 1526 1526 1526 1527 1527 1529 1529 1530 1530 1530 1530 1530 1530 1529 1529 1529 1528 1528 1527 1527 1526 1526 1525 1524 1524 1523 1522 1522 1522 1522 1522 1522 1522 1523
1530 1529 1529 1528 1528 1527 1527 1527 1527 1527 1527 1527 1528 1528 1529 1532 1531 1532 1531 1531 1531 1531 1531 1530 1530 1529 1528 1528 1528 1527 1527 1526 1526 1525 1524 1523 1523 1522 1522 1522 1522 1522 1522
1530 1529 1529 1528 1528 1528 1528 1527 1527 1528 1528 1528 1529 1530 1530 1531 1532 1533 1533 1533 1533 1532 1532 1532 1531 1531 1530 1529 1529 1528 1528 1527 1527 1526 1525 1524 1523 1523 1522 1522 1522 1522 1522
1529 1529 1529 1528 1528 1528 1528 1528 1528 1528 1528 1529 1529 1530 1531 1531 1532 1533 1534 1534 1534 1533 1533 1533 1532 1532 1531 1530 1530 1530 1529 1528 1528 1527 1526 1525 1524 1524 1523 1523 1523 1523 1522
1529 1528 1528 1528 1528 1528 1528 1528 1528 1528 1529 1529 1530 1530 1531 1532 1532 1532 1533 1534 1534 1534 1534 1533 1533 1532 1532 1531 1531 1530 1530 1529 1529 1528 1527 1526 1525 1525 1524 1523 1523 1523 1522
1528 1528 1528 1527 1528 1528 1528 1528 1528 1528 1529 1529 1530 1530 1531 1531 1532 1532 1533 1533 1533 1534 1534 1534 1533 1533 1532 1532 1531 1531 1530 1530 1529 1528 1527 1527 1526 1525 1525 1524 1523 1523 1522
1527 1527 1527 1527 1527 1527 1527 1527 1527 1528 1529 1529 1529 1530 1530 1531 1531 1532 1532 1532 1533 1533 1534 1533 1533 1533 1532 1532 1532 1531 1531 1530 1529 1529 1528 1527 1526 1526 1525 1524 1523 1523 1522
1526 1526 1526 1526 1526 1526 1527 1527 1527 1527 1528 1528 1529 1529 1529 1530 1531 1531 1531 1532 1532 1532 1533 1533 1533 1533 1532 1532 1532 1531 1531 1530 1530 1529 1528 1527 1527 1526 1525 1524 1523 1523 1522
1525 1525 1525 1525 1525 1525 1525 1526 1526 1526 1526 1527 1528 1528 1528 1529 1529 1530 1530 1531 1531 1531 1532 1532 1532 1532 1532 1531 1531 1531 1530 1530 1529 1529 1528 1527 1526 1526 1525 1524 1523 1523 1522
1523 1523 1523 1524 1524 1524 1524 1524 1524 1525 1525 1526 1526 1527 1527 1527 1528 1528 1529 1529 1530 1530 1530 1530 1531 1531 1531 1531 1531 1530 1529 1529 1529 1528 1528 1527 1526 1525 1525 1524 1523 1523 1522
1521 1522 1522 1522 1522 1522 1523 1523 1523 1523 1524 1524 1524 1525 1525 1526 1526 1527 1527 1528 1528 1529 1528 1529 1529 1530 1530 1530 1529 1529 1529 1528 1528 1528 1527 1527 1526 1525 1524 1524 1523 1523 1522
1519 1519 1520 1520 1520 1520 1520 1520 1521 1521 1522 1522 1522 1523 1523 1523 1524 1525 1525 1525 1526 1526 1527 1526 1527 1528 1528 1528 1528 1528 1528 1527 1527 1527 1526 1526 1525 1524 1524 1523 1523 1522 1522
1517 1517 1517 1517 1518 1518 1518 1518 1519 1519 1519 1520 1520 1520 1521 1521 1522 1522 1523 1523 1524 1524 1525 1525 1525 1526 1526 1526 1526 1526 1526 1526 1526 1525 1525 1525 1524 1524 1523 1522 1522 1521 1521
1513 1514 1514 1514 1514 1515 1515 1516 1516 1516 1517 1517 1518 1518 1518 1519 1519 1520 1520 1521 1521 1522 1522 1522 1523 1523 1524 1524 1524 1524 1524 1524 1524 1524 1523 1523 1523 1522 1522 1521 1521 1521 1520
1510 1511 1511 1511 1511 1511 1511 1512 1513 1513 1514 1514 1515 1515 1515 1516 1516 1517 1518 1518 1518 1519 1519 1520 1520 1521 1522 1522 1522 1522 1522 1522 1523 1522 1522 1521 1521 1520 1520 1520 1520 1519 1519
1507 1507 1507 1507 1507 1507 1508 1509 1509 1510 1510 1511 1511 1512 1512 1513 1514 1514 1515 1515 1516 1516 1517 1517 1518 1518 1519 1519 1519 1520 1520 1520 1520 1521 1520 1520 1519 1519 1519 1518 1518 1518 1517
1503 1503 1503 1503 1503 1504 1504 1505 1506 1506 1507 1507 1508 1509 1509 1510 1510 1510 1511 1512 1513 1514 1515 1515 1515 1515 1516 1516 1516 1517 1517 1517 1517 1518 1518 1517 1517 1517 1517 1517 1516 1516 1516
1499 1499 1499 1500 1500 1500 1501 1501 1502 1503 1503 1504 1505 1505 1506 1506 1507 1507 1507 1508 1509 1510 1511 1512 1512 1512 1513 1513 1514 1514 1514 1515 1516 1516 1516 1515 1515 1515 1515 1515 1514 1514 1513
1495 1495 1496 1496 1496 1496 1497 1498 1498 1499 1500 1500 1501 1502 1502 1503 1503 1504 1504 1504 1505 1506 1507 1508 1509 1509 1510 1510 1511 1511 1512 1512 1512 1512 1513 1513 1513 1512 1512 1512 1512 1512 1511
1491 1492 1492 1492 1493 1493 1493 1494 1495 1495 1496 1497 1497 1498 1499 1500 1500 1500 1501 1501 1501 1502 1503 1504 1505 1505 1506 1507 1507 1508 1508 1508 1508 1509 1509 1510 1510 1510 1509 1508 1509 1509 1508